Tracking 18942 objects as of 17-Jan-2018
HD Live streaming from Space Station
objects crossing your sky now

COSMOS 2177 (GLONASS)

Track COSMOS 2177 (GLONASS) now!
COSMOS 2177 (GLONASS) is classified as:


NORAD ID: 21853
Int'l Code: 1992-005A
Perigee: 19,112.5 km
Apogee: 19,161.6 km
Inclination: 64.0 °
Period: 675.7 minutes
Semi major axis: 25508 km
RCS: 2.3204 m2 (large)
Launch date: January 29, 1992
Source: Commonwealth of Independent States (former USSR) (CIS)
Launch site: TYURATAM MISSILE AND SPACE COMPLEX (TTMTR)
SV:
aabbcc
Your satellite tracking list
Your tracking list is empty




NASA's NSSDC Master Catalog

Two Line Element Set (TLE):
1 21853U 92005A   18016.88309205  .00000045  00000-0  00000+0 0  9994
2 21853  64.0364 175.8418 0009635 182.9989 230.1979  2.13101875202123
Source of the keplerian elements: AFSPC